GLOBALSTAR M047 [-]

Last updated on Fri Dec 29 2023 00:02:56 GMT+0000 (Coordinated Universal Time)

1 25772U 99031C 23362.14832555 -.00000053 00000+0 45010-3 0 9995 2 25772 51.9861 19.4012 0016326 61.3637 298.8809 11.31917613 85062

Satellite not in orbit

GLOBALSTAR M047 [-]